Tracking 17844 objects as of 27-August-2016
HD Live streaming from Space Station
objects crossing your sky now

H-1 R/B(1)

Track H-1 R/B(1) now!
10-day predictions


NORAD ID: 20230
Int'l Code: 1989-070B
Perigee: 192.8 km
Apogee: 6,385.1 km
Inclination: 28.2 °
Period: 157.5 minutes
Semi major axis: 9659 km
RCS: 2.9914 m2 (large)
Launch date: September 5, 1989
Source: Japan (JPN)
Launch site: TANEGASHIMA SPACE CENTER (TNSTA)

Note: This is a ROCKET BODY
Your satellite tracking list
Your tracking list is empty





NASA's NSSDC Master Catalog

Two Line Element Set (TLE):
1 20230U 89070B   16240.51336673  .00190673 -42174-6  10145-2 0  9992
2 20230  28.2173  64.1771 3205160 143.9374 242.7068  9.14413834482118
Source of the keplerian elements: AFSPC

N2YO: 495